When you browse on this site, cookies collect data to enhance your experience and personalize the content and advertising you see.
Visit our Privacy Policy to learn more. By continuing to use the site, you agree to this use of cookies and data.
  • En España
  • Lista de países
  • Para 7 días
  • Temperatura del agua
  • El tiempo en el mapa
  • Informadores
  • user-avatar
    Iniciar sesión

    Tiempo cada hora Gerchiki

    Hoy, 22 Agosto, Jueves

    Tiempo Temperatura Precipitaciones Viento Presión Humedad
    00:00 +20°C° 0.1 mm 4 mps 745 mmHg 87%
    01:00 +19°C° 0.1 mm 4 mps 746 mmHg 91%
    02:00 +18°C° 0.1 mm 3 mps 746 mmHg 95%
    03:00 +18°C° 0 mm 4 mps 746 mmHg 94%
    04:00 +17°C° 0 mm 4 mps 746 mmHg 93%
    05:00 +16°C° 0 mm 5 mps 747 mmHg 92%
    06:00 +16°C° 0 mm 5 mps 747 mmHg 90%
    07:00 +16°C° 0 mm 6 mps 748 mmHg 88%
    08:00 +15°C° 0 mm 6 mps 749 mmHg 87%
    09:00 +16°C° 0 mm 6 mps 749 mmHg 83%
    10:00 +17°C° 0 mm 5 mps 749 mmHg 80%
    11:00 +19°C° 0 mm 5 mps 749 mmHg 77%
    12:00 +19°C° 0 mm 5 mps 750 mmHg 74%
    13:00 +20°C° 0 mm 4 mps 750 mmHg 71%
    14:00 +21°C° 0 mm 4 mps 750 mmHg 68%
    15:00 +21°C° 0 mm 4 mps 750 mmHg 70%
    16:00 +21°C° 0 mm 3 mps 750 mmHg 72%
    17:00 +21°C° 0 mm 3 mps 750 mmHg 74%
    18:00 +19°C° 0 mm 3 mps 750 mmHg 77%
    19:00 +17°C° 0 mm 3 mps 750 mmHg 81%
    20:00 +15°C° 0 mm 2 mps 751 mmHg 84%
    21:00 +15°C° 0 mm 2 mps 751 mmHg 85%
    22:00 +14°C° 0 mm 2 mps 751 mmHg 86%
    23:00 +13°C° 0 mm 2 mps 751 mmHg 87%

    Mañana, 23 Agosto, Viernes

    Tiempo Temperatura Precipitaciones Viento Presión Humedad
    00:00 +13°C° 0 mm 2 mps 751 mmHg 87%
    01:00 +13°C° 0 mm 1 mps 752 mmHg 87%
    02:00 +12°C° 0 mm 1 mps 752 mmHg 87%
    03:00 +12°C° 0 mm 1 mps 752 mmHg 88%
    04:00 +12°C° 0 mm 1 mps 752 mmHg 88%
    05:00 +12°C° 0 mm 1 mps 752 mmHg 88%
    06:00 +13°C° 0 mm 1 mps 752 mmHg 84%
    07:00 +15°C° 0 mm 1 mps 752 mmHg 80%
    08:00 +18°C° 0 mm 1 mps 752 mmHg 76%
    09:00 +19°C° 0 mm 1 mps 753 mmHg 71%
    10:00 +20°C° 0 mm 1 mps 753 mmHg 67%
    11:00 +21°C° 0 mm 1 mps 753 mmHg 62%
    12:00 +22°C° 0 mm 1 mps 752 mmHg 60%
    13:00 +22°C° 0 mm 1 mps 752 mmHg 58%
    14:00 +23°C° 0 mm 2 mps 752 mmHg 56%
    15:00 +23°C° 0 mm 2 mps 752 mmHg 61%
    16:00 +22°C° 0 mm 1 mps 752 mmHg 65%
    17:00 +22°C° 0 mm 1 mps 751 mmHg 69%
    18:00 +20°C° 0 mm 1 mps 751 mmHg 73%
    19:00 +18°C° 0 mm 1 mps 751 mmHg 78%
    20:00 +15°C° 0 mm 1 mps 751 mmHg 82%
    21:00 +15°C° 0 mm 1 mps 751 mmHg 83%
    22:00 +14°C° 0 mm 1 mps 751 mmHg 85%
    23:00 +14°C° 0 mm 1 mps 752 mmHg 86%

    Pasado mañana, 24 Agosto, Sábado

    Tiempo Temperatura Precipitaciones Viento Presión Humedad
    00:00 +13°C° 0 mm 1 mps 752 mmHg 86%
    01:00 +12°C° 0 mm 0 mps 752 mmHg 87%
    02:00 +12°C° 0 mm 0 mps 752 mmHg 87%
    03:00 +11°C° 0 mm 0 mps 751 mmHg 87%
    04:00 +11°C° 0 mm 0 mps 751 mmHg 87%
    05:00 +11°C° 0 mm 0 mps 751 mmHg 88%
    06:00 +13°C° 0 mm 0 mps 751 mmHg 83%
    07:00 +16°C° 0 mm 1 mps 751 mmHg 79%
    08:00 +18°C° 0 mm 1 mps 752 mmHg 75%
    09:00 +20°C° 0 mm 1 mps 751 mmHg 71%
    10:00 +21°C° 0 mm 1 mps 751 mmHg 67%
    11:00 +22°C° 0 mm 1 mps 751 mmHg 63%
    12:00 +23°C° 0 mm 1 mps 751 mmHg 60%
    13:00 +23°C° 0 mm 1 mps 751 mmHg 58%
    14:00 +24°C° 0 mm 2 mps 751 mmHg 56%
    15:00 +23°C° 0 mm 1 mps 750 mmHg 61%
    16:00 +23°C° 0 mm 1 mps 750 mmHg 66%
    17:00 +23°C° 0 mm 1 mps 750 mmHg 70%
    18:00 +21°C° 0 mm 1 mps 750 mmHg 75%
    19:00 +19°C° 0 mm 1 mps 749 mmHg 79%
    20:00 +16°C° 0 mm 1 mps 749 mmHg 84%
    21:00 +16°C° 0 mm 1 mps 749 mmHg 85%
    22:00 +15°C° 0 mm 1 mps 749 mmHg 86%
    23:00 +15°C° 0 mm 1 mps 749 mmHg 87%

    25 Agosto, Domingo

    Tiempo Temperatura Precipitaciones Viento Presión Humedad
    00:00 +14°C° 0 mm 1 mps 749 mmHg 88%
    01:00 +14°C° 0 mm 1 mps 749 mmHg 89%
    02:00 +14°C° 0 mm 1 mps 749 mmHg 89%
    03:00 +13°C° 0 mm 1 mps 749 mmHg 90%
    04:00 +13°C° 0 mm 1 mps 749 mmHg 91%
    05:00 +13°C° 0 mm 1 mps 749 mmHg 91%
    06:00 +15°C° 0 mm 1 mps 749 mmHg 87%
    07:00 +16°C° 0 mm 2 mps 749 mmHg 82%
    08:00 +18°C° 0 mm 2 mps 749 mmHg 78%
    09:00 +19°C° 0 mm 2 mps 749 mmHg 74%
    10:00 +20°C° 0 mm 2 mps 749 mmHg 70%
    11:00 +22°C° 0 mm 3 mps 749 mmHg 66%
    12:00 +22°C° 0.1 mm 3 mps 749 mmHg 66%
    13:00 +22°C° 0.1 mm 3 mps 749 mmHg 66%
    14:00 +24°C° 0.1 mm 3 mps 749 mmHg 66%
    15:00 +22°C° 0.4 mm 3 mps 749 mmHg 71%
    16:00 +23°C° 0.4 mm 2 mps 749 mmHg 76%
    17:00 +21°C° 0.4 mm 2 mps 749 mmHg 80%
    18:00 +20°C° 0 mm 2 mps 749 mmHg 84%
    19:00 +18°C° 0 mm 2 mps 749 mmHg 87%
    20:00 +16°C° 0 mm 3 mps 750 mmHg 90%
    21:00 +14°C° 0 mm 3 mps 750 mmHg 91%
    22:00 +14°C° 0 mm 3 mps 750 mmHg 91%
    23:00 +13°C° 0 mm 3 mps 751 mmHg 91%

    26 Agosto, Lunes

    Tiempo Temperatura Precipitaciones Viento Presión Humedad
    00:00 +12°C° 0 mm 3 mps 751 mmHg 92%
    01:00 +12°C° 0 mm 3 mps 751 mmHg 93%
    02:00 +11°C° 0 mm 3 mps 751 mmHg 93%
    03:00 +12°C° 0 mm 2 mps 751 mmHg 94%
    04:00 +10°C° 0 mm 2 mps 751 mmHg 94%
    05:00 +10°C° 0 mm 2 mps 751 mmHg 94%
    06:00 +13°C° 0 mm 2 mps 752 mmHg 91%
    07:00 +14°C° 0 mm 2 mps 752 mmHg 88%
    08:00 +16°C° 0 mm 2 mps 752 mmHg 85%
    09:00 +17°C° 0 mm 2 mps 753 mmHg 79%
    10:00 +19°C° 0 mm 2 mps 753 mmHg 72%
    11:00 +20°C° 0 mm 2 mps 753 mmHg 65%
    12:00 +21°C° 0 mm 2 mps 753 mmHg 63%
    13:00 +21°C° 0 mm 2 mps 752 mmHg 60%
    14:00 +23°C° 0 mm 2 mps 752 mmHg 57%
    15:00 +21°C° 0 mm 2 mps 752 mmHg 61%
    16:00 +22°C° 0 mm 1 mps 752 mmHg 65%
    17:00 +22°C° 0 mm 1 mps 751 mmHg 69%
    18:00 +20°C° 0 mm 1 mps 751 mmHg 74%
    19:00 +18°C° 0 mm 1 mps 751 mmHg 78%
    20:00 +15°C° 0 mm 1 mps 751 mmHg 83%
    21:00 +15°C° 0 mm 1 mps 751 mmHg 85%
    22:00 +14°C° 0 mm 2 mps 751 mmHg 87%
    23:00 +14°C° 0 mm 2 mps 752 mmHg 90%

    27 Agosto, Martes

    Tiempo Temperatura Precipitaciones Viento Presión Humedad
    00:00 +13°C° 0 mm 2 mps 751 mmHg 90%
    01:00 +13°C° 0 mm 2 mps 751 mmHg 91%
    02:00 +13°C° 0 mm 2 mps 751 mmHg 92%
    03:00 +12°C° 0 mm 2 mps 751 mmHg 92%
    04:00 +12°C° 0 mm 2 mps 751 mmHg 92%
    05:00 +12°C° 0 mm 2 mps 751 mmHg 92%
    06:00 +14°C° 0 mm 2 mps 751 mmHg 88%
    07:00 +15°C° 0 mm 2 mps 751 mmHg 83%
    08:00 +17°C° 0 mm 2 mps 751 mmHg 78%
    09:00 +19°C° 0 mm 2 mps 751 mmHg 75%
    10:00 +20°C° 0 mm 2 mps 751 mmHg 71%
    11:00 +23°C° 0 mm 2 mps 751 mmHg 67%
    12:00 +23°C° 0 mm 2 mps 750 mmHg 66%
    13:00 +24°C° 0 mm 2 mps 750 mmHg 64%
    14:00 +24°C° 0 mm 2 mps 750 mmHg 63%
    15:00 +24°C° 0 mm 2 mps 750 mmHg 66%
    16:00 +24°C° 0 mm 2 mps 749 mmHg 70%
    17:00 +24°C° 0 mm 1 mps 749 mmHg 73%
    18:00 +22°C° 0 mm 1 mps 749 mmHg 78%
    19:00 +20°C° 0 mm 1 mps 749 mmHg 82%
    20:00 +18°C° 0 mm 1 mps 749 mmHg 86%
    21:00 +18°C° 0 mm 1 mps 749 mmHg 87%
    22:00 +18°C° 0 mm 1 mps 749 mmHg 88%
    23:00 +16°C° 0 mm 1 mps 749 mmHg 89%
    Mostrar más